Location: McFarlands Corners
(41.4117°N, 81.3382°W)
Time: 05:22:20
(UTC+00:00)

Tiros 1 - Pass Details

Date: 24 February 2026
Orbit: 618 x 649 km, 48.4° (Epoch: 5 March)

Event Time Altitude Azimuth Distance (km) Brightness Sun altitude
Rises 13:38:13 0° 275° (W) 2,921 10.0 15.2°
Reaches altitude 10° 13:40:43 10° 284° (WNW) 2,008 9.2 15.6°
Maximum altitude 13:44:59 36° 352° (N) 993 8.0 16.3°
Drops below altitude 10° 13:49:13 10° 59° (ENE) 1,993 10.2 17.0°
Sets 13:51:41 0° 68° (ENE) 2,896 11.1 17.4°
